Regional Weather Roundup
Issued by NWS Kansas City/Pleasant Hill, MO

Home | Current Version | Previous Version | Graphics & Text | Print | Product List | Glossary Off
Versions: 1 2 3 4 5 6 7 8 9 10 11 12 13 14 15 16 17 18 19 20 21 22 23 24 25 26 27 28 29 30 31 32 33 34 35 36 37 38 39 40 41 42 43 44 45 46 47 48 49 50

000
ASUS43 KEAX 011711
RWREAX

WEATHER ROUNDUP FOR EASTERN KANSAS AND NORTHWEST MISSOURI
NATIONAL WEATHER SERVICE KANSAS CITY/PLEASANT HILL MO
1200 PM CDT WED JUL 01 2015

KSZ040-057-103>105-MOZ028-029-037-043-011800-
...KANSAS CITY METROPOLITAN AREA...

CITY           SKY/WX    TMP DP  RH WIND       PRES   REMARKS
K.C. INTL      PTSUNNY   79  72  79 E8        29.86R
K.C. DOWNTOWN  PTSUNNY   83  73  72 SE8       29.84R
LEES SUMMIT    CLOUDY    79  72  79 S9G23     29.87R
OLATHE - IXD   PTSUNNY   76  72  87 S15       29.87R
OLATHE - OJC   PTSUNNY   75  71  87 S14       29.86R
LAWRENCE       PTSUNNY   80  71  74 SE14      29.84R

$$

MOZ001>008-011>017-020>025-030>033-038>040-044>046-053-054-011800-
...NORTHERN AND CENTRAL MISSOURI...

CITY           SKY/WX    TMP DP  RH WIND       PRES   REMARKS
ST. JOSEPH     MOSUNNY   80  71  74 NE12      29.86S
MOSBY          CLOUDY    77  70  78 E7        29.87S
HARRISONVILLE  LGT RAIN  75  72  88 SE9       29.89S
WARRENSBURG    CLOUDY    72  68  88 SE13      29.87R
WHITEMAN AFB   CLOUDY    72  72 100 S12       29.87S
CLINTON        CLOUDY    75  73  94 S13       29.90S
SEDALIA        CLOUDY    73  69  87 E9        29.91R
WARSAW         FAIR      72  72 100 S13       29.90F
CHILLICOTHE      N/A     76  71  85 S7        29.91F
KIRKSVILLE     LGT RAIN  76  69  79 SE13      29.89F

$$

MOZ041-047>049-056>058-063>065-088>090-097-011800-
...EASTERN AND SOUTHERN MISSOURI...

CITY           SKY/WX    TMP DP  RH WIND       PRES   REMARKS
ST. LOUIS INTL PTSUNNY   80  68  66 SW10      29.92F
SPIRIT OF STL  PTSUNNY   78  70  76 W8        29.90F
COLUMBIA       LGT RAIN  75  68  78 S13       29.92R
JEFFERSON CITY PTSUNNY   76  68  76 SW9       29.91R
MEXICO         MOSUNNY   81  73  78 SW9       29.91S
ROLLA          CLOUDY    74  69  85 S16       29.91F
LEBANON        CLOUDY    70  68  94 S7        29.96S
OSAGE BEACH    CLOUDY    70  66  88 S5        29.92F
SPRINGFIELD    CLOUDY    71  67  87 S18       29.97F
BRANSON        PTSUNNY   75  68  78 E5        30.02F
NEVADA         CLOUDY    72  68  88 SE12      29.93S
JOPLIN         PTSUNNY   84  74  71 SE13      29.91F HX  91
WEST PLAINS    CLOUDY    68  65  90 S8        30.02S
MALDEN         LGT RAIN  73  68  83 NW14G20   29.99F

$$

IAZ060-094-KSZ022-034>040-054-083-096-NEZ052-066-093-011800-
...KANSAS...SOUTHEAST NEBRASKA AND IOWA...

CITY           SKY/WX    TMP DP  RH WIND       PRES   REMARKS
TOPEKA         MOSUNNY   83  72  69 SE10      29.82R
MANHATTAN      SUNNY     90  64  42 VRB5      29.78R HX  91
EMPORIA        LGT RAIN  80  68  66 S17       29.81F
WICHITA        PTSUNNY   92  64  39 SW15      29.81R HX  93
OMAHA          MOSUNNY   80  68  66 SE9       29.88R
LINCOLN        PTSUNNY   79  68  69 E9        29.86R
FALLS CITY     PTSUNNY   79  71  76 E15       29.84F
LAMONI         LGT RAIN  73  69  87 E5        29.92F
DES MOINES     LGT RAIN  71  63  75 SE6       29.90F

$$



USA.gov is the U.S. government's official web portal to all federal, state and local government web resources and services.